EDRS-C

Last updated on Thu Nov 21 2024 00:02:44 GMT+0000 (Coordinated Universal Time)

1 44475U 19049A 24324.74877636 .00000156 00000+0 00000+0 0 9990 2 44475 0.0645 257.7517 0000746 307.7441 154.5183 1.00270773 19451
UTC large
Height (km)
Speed (km/s)
/
Latitude / Longitude
Inclination (degrees)
Orbital Period (minutes)
Azimuth
Elevation
Range (km)
Doppler Factor

Next 0 passes for location: London (51.5072 / 0.1276)

Sorry there are no passes over London.